SL-8 R/B, 11736

Orbit data source: Space-Track

SL-8 R/B, 11736 is space debris in LEO originally from a launch on Mon, 17 Mar 1980 UTC launched from the Plesetsk Missile And Space Complex (PKMTR). Debris objects in space refer to the collection of defunct objects orbiting the Earth. Examples of debris include non-operational satellites, rocket bodies, and fragments generated from explosions, collisions, or faulty payload assembly.

Loading next visibility...
Identifier
11736, 1980-022B
Orbit
LEO
Country
Flag of CISCIS
Related business
Manufacturer
Omsk Av. Zav.
Mission
Spacecraft
Bus & Motor
S3, Unknown motor
Mass
1,434 kg wet, 1,434 kg dry
Launch date (UTC)
1980-03-17 (46 years ago)
Launch vehicle
Unknown
Launch site
Plesetsk Missile And Space Complex (PKMTR)
Object type
Payload
Rocket body
Debris
Shape & HBR
Cyl, 3.3 m
Radar Cross Section
14.646 m², Large (>1 m²)

Expand to show TLE details & history
Last TLE update: 1 day ago

TLE from 1 day ago
0 SL-8 R/B
1 11736U 80022B   25260.99239058 -.00000037  00000-0 -52275-4 0  9997
2 11736  82.9380  79.2488 0032243 303.8080  56.0008 13.76775077285299
Epoch: 2025-09-17T23:49Z
TLE epoch observation values (Epoch: 2025-09-17T23:49:02.546Z)
Latitude
Longitude
84.82781°
Altitude
965.041 km
Speed
7.376 km/s
True Right ascension
05h 16m 59s
True Declination
0° 00' 00"
Sunlit
Object was in daylight at epoch
Visualization orbit readout
Latitude
Unknown
Longitude
Unknown
Altitude
Unknown
Speed
Unknown
Apparent Right ascension
Unknown
Apparent Declination
Unknown
Sunlit
N/A
Visualization observer readout
Local Sidereal Time
20:22:43
Azimuth
Unknown
Elevation
Unknown
Doppler factor
Unknown
Orbital elements
Apogee altitude
996.195 km
Perigee altitude
948.793 km
Semi-major axis
7,350.631 km
Eccentricity
0.00322
Inclination
82.938°
RAAN
79.2488°
Arg. of periapsis
303.808°
True anomaly
56.3078°
Mean anomaly
56.0008°
Eccentric anomaly
56.15423°
Mean motion
3.44395 °/min
Orbital period
104.53 mins
BSTAR
-0.000052275
Loading maneuver chart data...
Computing Atmospheric mass density...
Loading historical data...
Loading historical data...
Loading historical data...
Loading historical data...
Loading historical data...
Loading historical data...
Loading historical data...
Other satellites on launch #22 in the year 1980 (1980-03-17 UTC)

Documentation

Showing up to 5 results
|